This demonstration page uses our WeatherBlox Daily Observations layout. Learn more.

Left ArrowRight Arrow

34.16533, -84.80231

Hourly Observations for August 2, 2022

Temp ( °F °C ) Dew Point ( °F °C ) Humidity (%) Winds ( mph kmh ) Pressure ( in mb ) Visibility ( mi km ) Precip ( " mm )
12:15 am 00:15 Clear 72 22 70 21 94 94 Calm 30.11 1020 8 13 0.00 0.00
12:35 am 00:35 Mostly Clear 72 22 72 22 100 100 Calm 30.10 1019 7 11 0.00 0.00
12:55 am 00:55 Clear with Mist and Fog 72 22 70 21 94 94 Calm 30.10 1019 6 10 0.00 0.00
1:15 am 01:15 Clear with Mist and Fog 72 22 70 21 94 94 Calm 30.09 1019 6 10 0.00 0.00
1:35 am 01:35 Mostly Clear with Mist and Fog 72 22 70 21 94 94 Calm 30.09 1019 3 5 0.00 0.00
1:55 am 01:55 Clear with Mist and Fog 72 22 70 21 94 94 Calm 30.09 1019 3 5 0.00 0.00
2:15 am 02:15 Mostly Cloudy with Mist and Fog 72 22 70 21 94 94 Calm 30.09 1019 4 6 0.00 0.00
2:35 am 02:35 Cloudy with Mist and Fog 70 21 70 21 100 100 Calm 30.08 1019 1 1 0.00 0.00
2:55 am 02:55 Cloudy 70 21 70 21 100 100 Calm 30.07 1018 7 11 0.00 0.00
3:15 am 03:15 Cloudy 70 21 70 21 100 100 Calm 30.07 1018 8 13 0.00 0.00
3:35 am 03:35 Cloudy 70 21 70 21 100 100 Calm 30.07 1018 7 11 0.00 0.00
3:55 am 03:55 Cloudy with Fog 70 21 70 21 100 100 Calm 30.07 1018 0 0 0.00 0.00
4:15 am 04:15 Cloudy with Mist and Fog 70 21 70 21 100 100 Calm 30.07 1018 6 10 0.00 0.00
4:35 am 04:35 Cloudy with Mist and Fog 70 21 70 21 100 100 Calm 30.07 1018 3 4 0.00 0.00
4:55 am 04:55 Cloudy with Mist and Fog 70 21 70 21 100 100 Calm 30.07 1018 6 10 0.00 0.00
5:15 am 05:15 Cloudy 72 22 70 21 94 94 Calm 30.08 1019 8 13 0.00 0.00
5:35 am 05:35 Cloudy 72 22 72 22 100 100 Calm 30.08 1019 9 14 0.00 0.00
5:55 am 05:55 Cloudy 72 22 72 22 100 100 Calm 30.08 1019 9 14 0.00 0.00
6:15 am 06:15 Cloudy 72 22 72 22 100 100 Calm 30.09 1019 10 16 0.00 0.00
6:35 am 06:35 Cloudy 72 22 72 22 100 100 Calm 30.09 1019 10 16 0.00 0.00
6:55 am 06:55 Cloudy 72 22 72 22 100 100 Calm 30.10 1019 9 14 0.00 0.00
7:15 am 07:15 Cloudy 72 22 72 22 100 100 Calm 30.11 1020 9 14 0.00 0.00
7:35 am 07:35 Cloudy 72 22 72 22 100 100 Calm 30.12 1020 9 14 0.00 0.00
7:55 am 07:55 Cloudy 73 23 72 22 94 94 Calm 30.12 1020 9 14 0.00 0.00
8:15 am 08:15 Cloudy 73 23 72 22 94 94 Calm 30.13 1020 10 16 0.00 0.00
8:35 am 08:35 Cloudy 73 23 72 22 94 94 Calm 30.13 1020 9 14 0.00 0.00
8:55 am 08:55 Cloudy 75 24 73 23 94 94 Calm 30.13 1020 8 13 0.00 0.00
9:15 am 09:15 Mostly Cloudy with Mist and Fog 75 24 73 23 94 94 W 6 9 30.12 1020 2 3 0.00 0.00
9:35 am 09:35 Cloudy with Mist and Fog 75 24 73 23 94 94 W 8 13 30.12 1020 2 3 0.00 0.00
9:55 am 09:55 Mostly Cloudy with Mist and Fog 77 25 73 23 89 89 W 5 7 30.11 1020 2 3 0.00 0.00
10:15 am 10:15 Mostly Cloudy with Haze 79 26 75 24 89 89 WSW 5 7 30.11 1020 2 3 0.00 0.00
10:35 am 10:35 Mostly Cloudy with Haze 81 27 75 24 84 84 Calm 30.09 1019 2 3 0.00 0.00
10:55 am 10:55 Hazy 81 27 75 24 84 84 WSW 6 9 30.09 1019 3 4 0.00 0.00
11:15 am 11:15 Mostly Cloudy with Haze 81 27 73 23 79 79 SSW 7 11 30.08 1019 2 3 0.00 0.00
11:35 am 11:35 Cloudy with Haze 82 28 73 23 74 74 VRB 6 9 30.08 1019 1 2 0.00 0.00
11:55 am 11:55 Mostly Cloudy with Light Rain 82 28 73 23 74 74 WSW 3 6 30.08 1019 1 1 0.00 0.00
12:15 pm 12:15 Hazy 82 28 73 23 74 74 VRB 5 7 30.08 1019 2 3 0.00 0.00
12:35 pm 12:35 Mostly Cloudy with Light Rain 84 29 73 23 70 70 VRB 6 9 30.07 1018 1 1 0.00 0.00
12:55 pm 12:55 Hazy 84 29 73 23 70 70 W 3 6 30.06 1018 1 2 0.00 0.00
1:15 pm 13:15 Hazy 84 29 73 23 70 70 VRB 6 9 30.06 1018 2 2 0.00 0.00
1:35 pm 13:35 Partly Cloudy with Light Rain 86 30 75 24 70 70 W 6 9 30.06 1018 1 2 0.00 0.00
1:55 pm 13:55 Hazy 86 30 75 24 70 70 VRB 6 9 30.05 1017 2 3 0.00 0.00
2:15 pm 14:15 Hazy 88 31 75 24 66 66 VRB 6 9 30.04 1017 1 2 0.00 0.00
2:35 pm 14:35 Mostly Cloudy with Light Rain 88 31 75 24 66 66 W 8 13 30.03 1017 0 0 0.00 0.00
2:55 pm 14:55 Mostly Cloudy with Light Rain 88 31 75 24 66 66 W 6 9 30.02 1017 0 0 0.00 0.00
3:15 pm 15:15 Mostly Cloudy with Light Rain 88 31 75 24 66 66 W 6 9 30.02 1017 1 1 0.00 0.00
3:35 pm 15:35 Sunny 90 32 73 23 59 59 W 7 11 30.01 1016 9 14 0.00 0.00
3:55 pm 15:55 Sunny 90 32 75 24 63 63 WSW 5 7 30.00 1016 10 16 0.00 0.00
4:15 pm 16:15 Sunny 90 32 73 23 59 59 W 7 11 29.99 1016 9 14 0.00 0.00
4:35 pm 16:35 Sunny 90 32 73 23 59 59 W 7 11 29.99 1016 10 16 0.00 0.00
4:55 pm 16:55 Sunny 90 32 75 24 63 63 WSW 6 9 29.99 1016 10 16 0.00 0.00
5:15 pm 17:15 Sunny 90 32 73 23 59 59 W 7 11 29.99 1016 10 16 0.00 0.00
5:35 pm 17:35 Sunny 90 32 73 23 59 59 W 6 9 29.98 1015 10 16 0.00 0.00
5:55 pm 17:55 Sunny 90 32 73 23 59 59 VRB 5 7 29.98 1015 10 16 0.00 0.00
6:15 pm 18:15 Sunny 90 32 73 23 59 59 W 5 7 29.98 1015 10 16 0.00 0.00
6:35 pm 18:35 Sunny 90 32 73 23 59 59 W 6 9 29.98 1015 10 16 0.00 0.00
6:55 pm 18:55 Sunny 90 32 73 23 59 59 W 7 11 29.98 1015 10 16 0.00 0.00
7:15 pm 19:15 Sunny 88 31 75 24 66 66 W 6 9 29.97 1015 10 16 0.00 0.00
7:35 pm 19:35 Sunny 88 31 75 24 66 66 W 5 7 29.98 1015 10 16 0.00 0.00
7:55 pm 19:55 Sunny 86 30 75 24 70 70 W 5 7 29.99 1015 10 16 0.00 0.00
8:15 pm 20:15 Sunny 84 29 73 23 70 70 VRB 3 6 29.99 1016 10 16 0.00 0.00
8:35 pm 20:35 Sunny 84 29 75 24 74 74 Calm 29.99 1016 10 16 0.00 0.00
8:55 pm 20:55 Clear 82 28 75 24 79 79 Calm 30.00 1016 10 16 0.00 0.00
9:15 pm 21:15 Clear 82 28 75 24 79 79 Calm 30.01 1016 10 16 0.00 0.00
9:35 pm 21:35 Clear 82 28 75 24 79 79 Calm 30.00 1016 10 16 0.00 0.00
9:55 pm 21:55 Clear 81 27 75 24 84 84 Calm 30.01 1016 10 16 0.00 0.00
10:15 pm 22:15 Clear 81 27 75 24 84 84 Calm 30.01 1016 10 16 0.00 0.00
10:35 pm 22:35 Clear 79 26 75 24 89 89 Calm 30.03 1017 10 16 0.00 0.00
10:55 pm 22:55 Clear 79 26 75 24 89 89 Calm 30.03 1017 10 16 0.00 0.00
11:15 pm 23:15 Partly Cloudy 79 26 75 24 89 89 Calm 30.04 1017 10 16 0.00 0.00
11:35 pm 23:35 Cloudy 79 26 73 23 84 84 Calm 30.05 1017 10 16 0.00 0.00
11:55 pm 23:55 Cloudy 79 26 73 23 84 84 W 5 7 30.04 1017 10 16 0.00 0.00

Powered by AerisWeather